,,PressureMeas_1m,,PRMeasQMR101_1,,RHStat155_1m_1,,SRMeasQMS101R_1m,,TAStat155_1m_1,,GenWind_1,,GenWind_1,
2018-06-17, 00:00:06,VALID,918.372,VALID,0.0,VALID,98.619,VALID,0.004,VALID,20.558,VALID,320.0,VALID,0.0,
2018-06-17, 00:01:06,VALID,918.352,VALID,0.0,VALID,98.604,VALID,-0.011,VALID,20.55,VALID,320.0,VALID,0.0,
2018-06-17, 00:02:06,VALID,918.334,VALID,0.0,VALID,98.597,VALID,-0.006,VALID,20.515,VALID,320.0,VALID,0.0,
2018-06-17, 00:03:06,VALID,918.31,VALID,0.0,VALID,98.611,VALID,-0.023,VALID,20.498,VALID,320.0,VALID,0.0,
2018-06-17, 00:04:06,VALID,918.292,VALID,0.0,VALID,98.649,VALID,0.005,VALID,20.507,VALID,320.0,VALID,0.0,
2018-06-17, 00:05:06,VALID,918.275,VALID,0.0,VALID,98.68,VALID,-0.021,VALID,20.528,VALID,320.0,VALID,0.0,
2018-06-17, 00:06:06,VALID,918.261,VALID,0.0,VALID,98.707,VALID,-0.005,VALID,20.552,VALID,320.0,VALID,0.0,
2018-06-17, 00:07:06,VALID,918.256,VALID,0.0,VALID,98.701,VALID,0.0,VALID,20.542,VALID,320.0,VALID,0.0,
2018-06-17, 00:08:06,VALID,918.269,VALID,0.0,VALID,98.679,VALID,-0.001,VALID,20.5,VALID,320.0,VALID,0.0,
2018-06-17, 00:09:06,VALID,918.28,VALID,0.0,VALID,98.706,VALID,0.001,VALID,20.509,VALID,320.0,VALID,0.0,
2018-06-17, 00:10:06,VALID,918.287,VALID,0.0,VALID,98.695,VALID,-0.003,VALID,20.488,VALID,40.0,VALID,0.0,
2018-06-17, 00:11:06,VALID,918.305,VALID,0.0,VALID,98.637,VALID,0.016,VALID,20.43,VALID,59.0,VALID,0.0,
2018-06-17, 00:12:06,VALID,918.305,VALID,0.0,VALID,98.686,VALID,0.005,VALID,20.421,VALID,59.0,VALID,0.0,
2018-06-17, 00:13:06,VALID,918.323,VALID,0.0,VALID,98.682,VALID,0.0,VALID,20.413,VALID,59.0,VALID,0.0,
2018-06-17, 00:14:06,VALID,918.346,VALID,0.0,VALID,98.718,VALID,-0.003,VALID,20.417,VALID,59.0,VALID,0.0,
2018-06-17, 00:15:06,VALID,918.353,VALID,0.0,VALID,98.734,VALID,0.016,VALID,20.42,VALID,59.0,VALID,0.0,
2018-06-17, 00:16:06,VALID,918.353,VALID,0.0,VALID,98.746,VALID,0.019,VALID,20.412,VALID,59.0,VALID,0.0,
2018-06-17, 00:17:06,VALID,918.342,VALID,0.0,VALID,98.759,VALID,0.01,VALID,20.416,VALID,60.0,VALID,0.0,
2018-06-17, 00:18:06,VALID,918.331,VALID,0.0,VALID,98.73,VALID,0.016,VALID,20.35,VALID,95.0,VALID,0.0,
2018-06-17, 00:19:06,VALID,918.305,VALID,0.0,VALID,98.696,VALID,-0.005,VALID,20.301,VALID,111.0,VALID,0.0,
2018-06-17, 00:20:06,VALID,918.271,VALID,0.0,VALID,98.773,VALID,-0.011,VALID,20.327,VALID,118.0,VALID,0.0,
2018-06-17, 00:21:06,VALID,918.249,VALID,0.0,VALID,98.794,VALID,-0.01,VALID,20.327,VALID,128.0,VALID,0.0,
2018-06-17, 00:22:06,VALID,918.224,VALID,0.0,VALID,98.793,VALID,-0.018,VALID,20.324,VALID,122.0,VALID,0.0,
2018-06-17, 00:23:06,VALID,918.205,VALID,0.0,VALID,98.805,VALID,-0.016,VALID,20.32,VALID,113.0,VALID,0.0,
2018-06-17, 00:24:06,VALID,918.189,VALID,0.0,VALID,98.802,VALID,-0.027,VALID,20.312,VALID,112.0,VALID,0.0,
2018-06-17, 00:25:06,VALID,918.192,VALID,0.0,VALID,98.83,VALID,-0.026,VALID,20.321,VALID,114.0,VALID,0.0,
2018-06-17, 00:26:06,VALID,918.191,VALID,0.0,VALID,98.849,VALID,-0.032,VALID,20.347,VALID,124.0,VALID,0.0,
2018-06-17, 00:27:06,VALID,918.2,VALID,0.0,VALID,98.825,VALID,-0.014,VALID,20.318,VALID,126.0,VALID,0.0,
2018-06-17, 00:28:06,VALID,918.202,VALID,0.0,VALID,98.839,VALID,-0.02,VALID,20.319,VALID,134.0,VALID,0.0,
2018-06-17, 00:29:06,VALID,918.19,VALID,0.0,VALID,98.859,VALID,-0.022,VALID,20.335,VALID,127.0,VALID,0.0,
2018-06-17, 00:30:06,VALID,918.182,VALID,0.0,VALID,98.879,VALID,-0.013,VALID,20.322,VALID,130.0,VALID,0.0,
2018-06-17, 00:31:06,VALID,918.173,VALID,0.0,VALID,98.868,VALID,-0.028,VALID,20.322,VALID,132.0,VALID,0.0,
2018-06-17, 00:32:06,VALID,918.179,VALID,0.0,VALID,98.906,VALID,-0.027,VALID,20.355,VALID,125.0,VALID,0.0,
2018-06-17, 00:33:06,VALID,918.192,VALID,0.0,VALID,98.94,VALID,-0.013,VALID,20.399,VALID,135.0,VALID,0.0,
2018-06-17, 00:34:06,VALID,918.199,VALID,0.0,VALID,98.911,VALID,-0.019,VALID,20.398,VALID,133.0,VALID,0.0,
2018-06-17, 00:35:06,VALID,918.207,VALID,0.0,VALID,98.941,VALID,-0.008,VALID,20.401,VALID,133.0,VALID,0.0,
2018-06-17, 00:36:06,VALID,918.212,VALID,0.0,VALID,98.941,VALID,-0.009,VALID,20.412,VALID,133.0,VALID,0.0,
2018-06-17, 00:37:06,VALID,918.2,VALID,0.0,VALID,98.907,VALID,-0.009,VALID,20.407,VALID,133.0,VALID,0.0,
2018-06-17, 00:38:06,VALID,918.18,VALID,0.0,VALID,98.918,VALID,0.002,VALID,20.391,VALID,133.0,VALID,0.0,
2018-06-17, 00:39:06,VALID,918.137,VALID,0.0,VALID,98.894,VALID,0.008,VALID,20.356,VALID,134.0,VALID,0.0,
2018-06-17, 00:40:06,VALID,918.127,VALID,0.0,VALID,98.896,VALID,-0.001,VALID,20.317,VALID,134.0,VALID,0.0,
2018-06-17, 00:41:06,VALID,918.098,VALID,0.0,VALID,98.903,VALID,0.006,VALID,20.296,VALID,134.0,VALID,0.0,
2018-06-17, 00:42:06,VALID,918.083,VALID,0.0,VALID,98.897,VALID,0.006,VALID,20.279,VALID,134.0,VALID,0.0,
2018-06-17, 00:43:06,VALID,918.07,VALID,0.0,VALID,98.847,VALID,0.016,VALID,20.238,VALID,134.0,VALID,0.0,
2018-06-17, 00:44:06,VALID,918.057,VALID,0.0,VALID,98.851,VALID,0.008,VALID,20.177,VALID,133.0,VALID,0.0,
2018-06-17, 00:45:06,VALID,918.051,VALID,0.0,VALID,98.851,VALID,0.004,VALID,20.139,VALID,133.0,VALID,0.0,
2018-06-17, 00:46:06,VALID,918.034,VALID,0.0,VALID,98.879,VALID,0.032,VALID,20.109,VALID,132.0,VALID,0.0,
2018-06-17, 00:47:06,VALID,918.045,VALID,0.0,VALID,98.902,VALID,0.008,VALID,20.092,VALID,90.0,VALID,0.0,
2018-06-17, 00:48:06,VALID,918.029,VALID,0.0,VALID,98.899,VALID,0.015,VALID,20.088,VALID,64.0,VALID,0.0,
2018-06-17, 00:49:06,VALID,918.026,VALID,0.0,VALID,98.945,VALID,0.008,VALID,20.102,VALID,64.0,VALID,0.0,
2018-06-17, 00:50:06,VALID,918.034,VALID,0.0,VALID,98.948,VALID,-0.017,VALID,20.108,VALID,64.0,VALID,0.0,
2018-06-17, 00:51:06,VALID,918.027,VALID,0.0,VALID,98.942,VALID,-0.013,VALID,20.111,VALID,64.0,VALID,0.0,
2018-06-17, 00:52:06,VALID,918.029,VALID,0.0,VALID,98.97,VALID,-0.032,VALID,20.148,VALID,64.0,VALID,0.0,
2018-06-17, 00:53:06,VALID,918.034,VALID,0.0,VALID,98.977,VALID,-0.006,VALID,20.189,VALID,64.0,VALID,0.0,
2018-06-17, 00:54:06,VALID,918.049,VALID,0.0,VALID,99.007,VALID,-0.029,VALID,20.234,VALID,64.0,VALID,0.0,
2018-06-17, 00:55:06,VALID,918.048,VALID,0.0,VALID,98.936,VALID,-0.026,VALID,20.195,VALID,64.0,VALID,0.0,
2018-06-17, 00:56:06,VALID,918.062,VALID,0.0,VALID,98.889,VALID,-0.028,VALID,20.117,VALID,64.0,VALID,0.0,
2018-06-17, 00:57:06,VALID,918.053,VALID,0.0,VALID,98.872,VALID,-0.017,VALID,20.046,VALID,65.0,VALID,0.0,
2018-06-17, 00:58:06,VALID,918.051,VALID,0.0,VALID,98.876,VALID,-0.009,VALID,19.991,VALID,66.0,VALID,0.0,
2018-06-17, 00:59:06,VALID,918.045,VALID,0.0,VALID,98.928,VALID,0.0,VALID,20.021,VALID,66.0,VALID,0.0,
2018-06-17, 01:00:06,VALID,918.035,VALID,0.0,VALID,98.946,VALID,-0.002,VALID,20.034,VALID,65.0,VALID,0.0,
2018-06-17, 01:01:06,VALID,918.028,VALID,0.0,VALID,98.917,VALID,-0.002,VALID,20.023,VALID,53.0,VALID,0.0,
2018-06-17, 01:02:06,VALID,918.021,VALID,0.0,VALID,98.965,VALID,-0.008,VALID,20.068,VALID,49.0,VALID,0.0,
2018-06-17, 01:03:06,VALID,918.01,VALID,0.0,VALID,98.935,VALID,-0.019,VALID,20.036,VALID,52.0,VALID,0.0,
2018-06-17, 01:04:06,VALID,917.995,VALID,0.0,VALID,98.904,VALID,-0.002,VALID,20.001,VALID,53.0,VALID,0.0,
2018-06-17, 01:05:06,VALID,917.987,VALID,0.0,VALID,98.915,VALID,0.003,VALID,19.981,VALID,57.0,VALID,0.0,
2018-06-17, 01:06:06,VALID,917.981,VALID,0.0,VALID,98.902,VALID,-0.005,VALID,19.945,VALID,66.0,VALID,0.0,
2018-06-17, 01:07:06,VALID,917.966,VALID,0.0,VALID,98.851,VALID,-0.001,VALID,19.879,VALID,69.0,VALID,0.0,
2018-06-17, 01:08:06,VALID,917.951,VALID,0.0,VALID,98.854,VALID,0.003,VALID,19.836,VALID,72.0,VALID,0.0,
2018-06-17, 01:09:06,VALID,917.949,VALID,0.0,VALID,98.857,VALID,0.01,VALID,19.819,VALID,65.0,VALID,0.0,
2018-06-17, 01:10:06,VALID,917.944,VALID,0.0,VALID,98.899,VALID,0.005,VALID,19.831,VALID,61.0,VALID,0.0,
2018-06-17, 01:11:06,VALID,917.945,VALID,0.0,VALID,98.86,VALID,0.009,VALID,19.804,VALID,71.0,VALID,0.0,
2018-06-17, 01:12:06,VALID,917.937,VALID,0.0,VALID,98.921,VALID,0.019,VALID,19.833,VALID,84.0,VALID,0.0,
2018-06-17, 01:13:06,VALID,917.931,VALID,0.0,VALID,98.958,VALID,0.008,VALID,19.873,VALID,97.0,VALID,0.0,
2018-06-17, 01:14:06,VALID,917.915,VALID,0.0,VALID,98.887,VALID,0.017,VALID,19.819,VALID,115.0,VALID,0.0,
2018-06-17, 01:15:06,VALID,917.904,VALID,0.0,VALID,98.908,VALID,0.018,VALID,19.822,VALID,119.0,VALID,0.0,
2018-06-17, 01:16:06,VALID,917.893,VALID,0.0,VALID,98.986,VALID,0.013,VALID,19.899,VALID,124.0,VALID,0.0,
2018-06-17, 01:17:06,VALID,917.876,VALID,0.0,VALID,99.009,VALID,0.01,VALID,19.963,VALID,122.0,VALID,0.0,
2018-06-17, 01:18:06,VALID,917.863,VALID,0.0,VALID,99.023,VALID,0.015,VALID,20.032,VALID,118.0,VALID,0.0,
2018-06-17, 01:19:06,VALID,917.849,VALID,0.0,VALID,99.027,VALID,0.007,VALID,20.073,VALID,112.0,VALID,0.0,
2018-06-17, 01:20:06,VALID,917.838,VALID,0.0,VALID,99.012,VALID,0.016,VALID,20.081,VALID,107.0,VALID,0.0,
2018-06-17, 01:21:06,VALID,917.817,VALID,0.0,VALID,99.023,VALID,0.003,VALID,20.098,VALID,107.0,VALID,0.0,
2018-06-17, 01:22:06,VALID,917.815,VALID,0.0,VALID,99.03,VALID,-0.014,VALID,20.125,VALID,107.0,VALID,0.0,
2018-06-17, 01:23:06,VALID,917.799,VALID,0.0,VALID,99.039,VALID,-0.008,VALID,20.128,VALID,107.0,VALID,0.0,
2018-06-17, 01:24:06,VALID,917.8,VALID,0.0,VALID,99.021,VALID,-0.007,VALID,20.136,VALID,123.0,VALID,0.0,
2018-06-17, 01:25:06,VALID,917.785,VALID,0.0,VALID,99.016,VALID,-0.011,VALID,20.148,VALID,129.0,VALID,0.0,
2018-06-17, 01:26:06,VALID,917.785,VALID,0.0,VALID,99.037,VALID,-0.022,VALID,20.151,VALID,125.0,VALID,0.0,
2018-06-17, 01:27:06,VALID,917.773,VALID,0.0,VALID,99.03,VALID,-0.015,VALID,20.138,VALID,126.0,VALID,0.0,
2018-06-17, 01:28:06,VALID,917.769,VALID,0.0,VALID,99.037,VALID,-0.023,VALID,20.155,VALID,120.0,VALID,0.0,
2018-06-17, 01:29:06,VALID,917.757,VALID,0.0,VALID,99.022,VALID,-0.026,VALID,20.132,VALID,113.0,VALID,0.0,
2018-06-17, 01:30:06,VALID,917.751,VALID,0.0,VALID,99.033,VALID,-0.005,VALID,20.107,VALID,105.0,VALID,0.0,
2018-06-17, 01:31:06,VALID,917.724,VALID,0.0,VALID,99.013,VALID,-0.02,VALID,20.094,VALID,103.0,VALID,0.0,
2018-06-17, 01:32:06,VALID,917.716,VALID,0.0,VALID,99.016,VALID,-0.01,VALID,20.072,VALID,100.0,VALID,0.0,
2018-06-17, 01:33:06,VALID,917.714,VALID,0.0,VALID,99.013,VALID,-0.015,VALID,20.065,VALID,98.0,VALID,0.0,
2018-06-17, 01:34:06,VALID,917.718,VALID,0.0,VALID,99.013,VALID,-0.011,VALID,20.049,VALID,98.0,VALID,0.0,
2018-06-17, 01:35:06,VALID,917.734,VALID,0.0,VALID,99.008,VALID,0.004,VALID,20.02,VALID,108.0,VALID,0.0,
2018-06-17, 01:36:06,VALID,917.728,VALID,0.0,VALID,99.03,VALID,-0.003,VALID,20.027,VALID,118.0,VALID,0.0,
2018-06-17, 01:37:06,VALID,917.725,VALID,0.0,VALID,99.046,VALID,-0.014,VALID,20.028,VALID,111.0,VALID,0.0,
2018-06-17, 01:38:06,VALID,917.719,VALID,0.0,VALID,99.035,VALID,-0.023,VALID,20.036,VALID,106.0,VALID,0.0,
2018-06-17, 01:39:06,VALID,917.712,VALID,0.0,VALID,99.05,VALID,-0.01,VALID,20.039,VALID,110.0,VALID,0.0,
2018-06-17, 01:40:06,VALID,917.707,VALID,0.0,VALID,99.036,VALID,-0.013,VALID,20.044,VALID,111.0,VALID,0.0,
2018-06-17, 01:41:06,VALID,917.697,VALID,0.0,VALID,99.027,VALID,-0.008,VALID,20.049,VALID,107.0,VALID,0.0,
2018-06-17, 01:42:06,VALID,917.674,VALID,0.0,VALID,99.048,VALID,0.007,VALID,20.043,VALID,95.0,VALID,0.0,
2018-06-17, 01:43:06,VALID,917.662,VALID,0.0,VALID,99.011,VALID,-0.025,VALID,20.004,VALID,94.0,VALID,0.0,
2018-06-17, 01:44:06,VALID,917.652,VALID,0.0,VALID,99.031,VALID,-0.011,VALID,19.996,VALID,95.0,VALID,0.0,
2018-06-17, 01:45:06,VALID,917.651,VALID,0.0,VALID,99.049,VALID,-0.011,VALID,20.006,VALID,94.0,VALID,0.0,
2018-06-17, 01:46:06,VALID,917.645,VALID,0.0,VALID,99.031,VALID,-0.011,VALID,19.99,VALID,93.0,VALID,0.0,
2018-06-17, 01:47:06,VALID,917.633,VALID,0.0,VALID,99.053,VALID,-0.005,VALID,19.984,VALID,100.0,VALID,0.0,
2018-06-17, 01:48:06,VALID,917.62,VALID,0.0,VALID,99.041,VALID,-0.01,VALID,19.967,VALID,105.0,VALID,0.0,
2018-06-17, 01:49:06,VALID,917.594,VALID,0.0,VALID,99.06,VALID,0.006,VALID,19.971,VALID,109.0,VALID,0.0,
2018-06-17, 01:50:06,VALID,917.571,VALID,0.0,VALID,99.096,VALID,-0.004,VALID,20.036,VALID,100.0,VALID,0.0,
2018-06-17, 01:51:06,VALID,917.562,VALID,0.0,VALID,99.081,VALID,-0.002,VALID,20.05,VALID,91.0,VALID,0.0,
2018-06-17, 01:52:06,VALID,917.553,VALID,0.0,VALID,99.068,VALID,-0.015,VALID,20.05,VALID,86.0,VALID,0.0,
2018-06-17, 01:53:06,VALID,917.552,VALID,0.0,VALID,99.063,VALID,0.002,VALID,20.04,VALID,76.0,VALID,0.0,
2018-06-17, 01:54:06,VALID,917.565,VALID,0.0,VALID,99.056,VALID,-0.008,VALID,20.045,VALID,80.0,VALID,0.0,
2018-06-17, 01:55:06,VALID,917.566,VALID,0.0,VALID,99.045,VALID,-0.037,VALID,20.006,VALID,86.0,VALID,0.0,
2018-06-17, 01:56:06,VALID,917.563,VALID,0.0,VALID,99.057,VALID,-0.028,VALID,19.987,VALID,86.0,VALID,0.0,
2018-06-17, 01:57:06,VALID,917.54,VALID,0.0,VALID,99.067,VALID,-0.022,VALID,19.995,VALID,86.0,VALID,0.0,
2018-06-17, 01:58:06,VALID,917.515,VALID,0.0,VALID,99.058,VALID,-0.01,VALID,19.97,VALID,85.0,VALID,0.0,
2018-06-17, 01:59:06,VALID,917.511,VALID,0.0,VALID,99.066,VALID,-0.012,VALID,19.936,VALID,86.0,VALID,0.0,
2018-06-17, 02:00:06,VALID,917.51,VALID,0.0,VALID,99.039,VALID,-0.02,VALID,19.893,VALID,93.0,VALID,0.0,
2018-06-17, 02:01:06,VALID,917.516,VALID,0.0,VALID,99.009,VALID,-0.032,VALID,19.838,VALID,96.0,VALID,0.0,
2018-06-17, 02:02:06,VALID,917.533,VALID,0.0,VALID,99.021,VALID,-0.039,VALID,19.816,VALID,99.0,VALID,0.0,
2018-06-17, 02:03:06,VALID,917.544,VALID,0.0,VALID,99.06,VALID,-0.029,VALID,19.829,VALID,102.0,VALID,0.0,
2018-06-17, 02:04:06,VALID,917.534,VALID,0.0,VALID,99.061,VALID,-0.011,VALID,19.85,VALID,94.0,VALID,0.0,
2018-06-17, 02:05:06,VALID,917.534,VALID,0.0,VALID,99.088,VALID,0.003,VALID,19.876,VALID,86.0,VALID,0.0,
2018-06-17, 02:06:06,VALID,917.544,VALID,0.0,VALID,99.064,VALID,0.01,VALID,19.854,VALID,85.0,VALID,0.0,
2018-06-17, 02:07:06,VALID,917.552,VALID,0.0,VALID,99.057,VALID,0.013,VALID,19.84,VALID,85.0,VALID,0.0,
2018-06-17, 02:08:06,VALID,917.563,VALID,0.0,VALID,99.088,VALID,0.019,VALID,19.846,VALID,85.0,VALID,0.0,
2018-06-17, 02:09:06,VALID,917.561,VALID,0.0,VALID,99.066,VALID,0.001,VALID,19.848,VALID,85.0,VALID,0.0,
2018-06-17, 02:10:06,VALID,917.555,VALID,0.0,VALID,99.095,VALID,-0.01,VALID,19.863,VALID,85.0,VALID,0.0,
2018-06-17, 02:11:06,VALID,917.534,VALID,0.0,VALID,99.083,VALID,-0.01,VALID,19.85,VALID,84.0,VALID,0.0,
2018-06-17, 02:12:06,VALID,917.522,VALID,0.0,VALID,99.07,VALID,0.002,VALID,19.839,VALID,77.0,VALID,0.0,
2018-06-17, 02:13:06,VALID,917.5,VALID,0.0,VALID,99.056,VALID,0.013,VALID,19.809,VALID,61.0,VALID,0.0,
2018-06-17, 02:14:06,VALID,917.483,VALID,0.0,VALID,99.06,VALID,0.01,VALID,19.768,VALID,63.0,VALID,0.0,
2018-06-17, 02:15:06,VALID,917.488,VALID,0.0,VALID,99.066,VALID,0.015,VALID,19.76,VALID,75.0,VALID,0.0,
2018-06-17, 02:16:06,VALID,917.502,VALID,0.0,VALID,99.063,VALID,0.01,VALID,19.748,VALID,98.0,VALID,0.0,
2018-06-17, 02:17:06,VALID,917.51,VALID,0.0,VALID,99.096,VALID,0.007,VALID,19.747,VALID,113.0,VALID,0.0,
2018-06-17, 02:18:06,VALID,917.496,VALID,0.0,VALID,99.098,VALID,0.003,VALID,19.773,VALID,111.0,VALID,0.0,
2018-06-17, 02:19:06,VALID,917.501,VALID,0.0,VALID,99.093,VALID,0.015,VALID,19.798,VALID,112.0,VALID,0.0,
2018-06-17, 02:20:06,VALID,917.494,VALID,0.0,VALID,99.111,VALID,0.002,VALID,19.808,VALID,110.0,VALID,0.0,
2018-06-17, 02:21:06,VALID,917.505,VALID,0.0,VALID,99.109,VALID,0.007,VALID,19.812,VALID,99.0,VALID,0.0,
2018-06-17, 02:22:06,VALID,917.519,VALID,0.0,VALID,99.101,VALID,0.021,VALID,19.812,VALID,103.0,VALID,0.0,
2018-06-17, 02:23:06,VALID,917.539,VALID,0.0,VALID,99.099,VALID,0.011,VALID,19.819,VALID,100.0,VALID,0.0,
2018-06-17, 02:24:06,VALID,917.563,VALID,0.0,VALID,99.084,VALID,0.012,VALID,19.794,VALID,91.0,VALID,0.0,
2018-06-17, 02:25:06,VALID,917.58,VALID,0.0,VALID,99.089,VALID,0.0,VALID,19.769,VALID,90.0,VALID,0.0,
2018-06-17, 02:26:06,VALID,917.589,VALID,0.0,VALID,99.088,VALID,0.004,VALID,19.765,VALID,90.0,VALID,0.0,
2018-06-17, 02:27:06,VALID,917.6,VALID,0.0,VALID,99.087,VALID,-0.002,VALID,19.755,VALID,90.0,VALID,0.0,
2018-06-17, 02:28:06,VALID,917.62,VALID,0.0,VALID,99.085,VALID,-0.008,VALID,19.755,VALID,90.0,VALID,0.0,
2018-06-17, 02:29:06,VALID,917.62,VALID,0.0,VALID,99.091,VALID,0.013,VALID,19.754,VALID,90.0,VALID,0.0,
2018-06-17, 02:30:06,VALID,917.617,VALID,0.0,VALID,99.116,VALID,-0.019,VALID,19.756,VALID,119.0,VALID,0.0,
2018-06-17, 02:31:06,VALID,917.604,VALID,0.0,VALID,99.089,VALID,-0.011,VALID,19.753,VALID,135.0,VALID,0.0,
2018-06-17, 02:32:06,VALID,917.6,VALID,0.0,VALID,99.114,VALID,-0.001,VALID,19.78,VALID,131.0,VALID,0.0,
2018-06-17, 02:33:06,VALID,917.591,VALID,0.0,VALID,99.127,VALID,-0.005,VALID,19.807,VALID,107.0,VALID,0.0,
2018-06-17, 02:34:06,VALID,917.589,VALID,0.0,VALID,99.105,VALID,0.01,VALID,19.782,VALID,104.0,VALID,0.0,
2018-06-17, 02:35:06,VALID,917.576,VALID,0.0,VALID,99.099,VALID,0.006,VALID,19.772,VALID,103.0,VALID,0.0,
2018-06-17, 02:36:06,VALID,917.574,VALID,0.0,VALID,99.127,VALID,0.005,VALID,19.778,VALID,113.0,VALID,0.0,
2018-06-17, 02:37:06,VALID,917.576,VALID,0.0,VALID,99.119,VALID,0.0,VALID,19.788,VALID,109.0,VALID,0.0,
2018-06-17, 02:38:06,VALID,917.564,VALID,0.0,VALID,99.114,VALID,0.01,VALID,19.801,VALID,111.0,VALID,0.0,
2018-06-17, 02:39:06,VALID,917.538,VALID,0.0,VALID,99.113,VALID,0.015,VALID,19.783,VALID,103.0,VALID,0.0,
2018-06-17, 02:40:06,VALID,917.515,VALID,0.0,VALID,99.129,VALID,-0.007,VALID,19.783,VALID,104.0,VALID,0.0,
2018-06-17, 02:41:06,VALID,917.47,VALID,0.0,VALID,99.13,VALID,0.009,VALID,19.786,VALID,98.0,VALID,0.0,
2018-06-17, 02:42:06,VALID,917.449,VALID,0.0,VALID,99.098,VALID,0.008,VALID,19.742,VALID,94.0,VALID,0.0,
2018-06-17, 02:43:06,VALID,917.433,VALID,0.0,VALID,99.086,VALID,0.001,VALID,19.721,VALID,91.0,VALID,0.0,
2018-06-17, 02:44:06,VALID,917.424,VALID,0.0,VALID,99.15,VALID,-0.007,VALID,19.738,VALID,91.0,VALID,0.0,
2018-06-17, 02:45:06,VALID,917.419,VALID,0.0,VALID,99.116,VALID,0.005,VALID,19.724,VALID,86.0,VALID,0.0,
2018-06-17, 02:46:06,VALID,917.407,VALID,0.0,VALID,99.104,VALID,0.005,VALID,19.707,VALID,94.0,VALID,0.0,
2018-06-17, 02:47:06,VALID,917.388,VALID,0.0,VALID,99.099,VALID,0.001,VALID,19.678,VALID,98.0,VALID,0.0,
2018-06-17, 02:48:06,VALID,917.378,VALID,0.0,VALID,99.105,VALID,0.019,VALID,19.653,VALID,100.0,VALID,0.0,
2018-06-17, 02:49:06,VALID,917.345,VALID,0.0,VALID,99.092,VALID,0.012,VALID,19.619,VALID,99.0,VALID,0.0,
2018-06-17, 02:50:06,VALID,917.319,VALID,0.0,VALID,99.101,VALID,0.003,VALID,19.578,VALID,101.0,VALID,0.0,
2018-06-17, 02:51:06,VALID,917.305,VALID,0.0,VALID,99.096,VALID,0.01,VALID,19.551,VALID,110.0,VALID,0.0,
2018-06-17, 02:52:06,VALID,917.283,VALID,0.0,VALID,99.12,VALID,0.007,VALID,19.545,VALID,100.0,VALID,0.0,
2018-06-17, 02:53:06,VALID,917.27,VALID,0.0,VALID,99.114,VALID,0.009,VALID,19.541,VALID,94.0,VALID,0.0,
2018-06-17, 02:54:06,VALID,917.254,VALID,0.0,VALID,99.107,VALID,-0.012,VALID,19.523,VALID,84.0,VALID,0.0,
2018-06-17, 02:55:06,VALID,917.253,VALID,0.0,VALID,99.116,VALID,0.008,VALID,19.512,VALID,85.0,VALID,0.0,
2018-06-17, 02:56:06,VALID,917.265,VALID,0.0,VALID,99.119,VALID,0.009,VALID,19.513,VALID,97.0,VALID,0.0,
2018-06-17, 02:57:06,VALID,917.251,VALID,0.0,VALID,99.108,VALID,-0.002,VALID,19.469,VALID,97.0,VALID,0.0,
2018-06-17, 02:58:06,VALID,917.235,VALID,0.0,VALID,99.104,VALID,-0.008,VALID,19.436,VALID,108.0,VALID,0.0,
2018-06-17, 02:59:06,VALID,917.209,VALID,0.0,VALID,99.12,VALID,0.009,VALID,19.443,VALID,103.0,VALID,0.0,
2018-06-17, 03:00:06,VALID,917.183,VALID,0.0,VALID,99.119,VALID,-0.001,VALID,19.449,VALID,91.0,VALID,0.0,
2018-06-17, 03:01:06,VALID,917.156,VALID,0.0,VALID,99.125,VALID,0.006,VALID,19.443,VALID,91.0,VALID,0.0,
2018-06-17, 03:02:06,VALID,917.137,VALID,0.0,VALID,99.102,VALID,0.009,VALID,19.411,VALID,86.0,VALID,0.0,
2018-06-17, 03:03:06,VALID,917.136,VALID,0.0,VALID,99.107,VALID,0.001,VALID,19.384,VALID,90.0,VALID,0.0,
2018-06-17, 03:04:06,VALID,917.132,VALID,0.0,VALID,99.114,VALID,0.001,VALID,19.351,VALID,95.0,VALID,0.0,
2018-06-17, 03:05:06,VALID,917.13,VALID,0.0,VALID,99.085,VALID,-0.013,VALID,19.331,VALID,100.0,VALID,0.0,
2018-06-17, 03:06:06,VALID,917.131,VALID,0.0,VALID,99.121,VALID,-0.011,VALID,19.326,VALID,96.0,VALID,0.0,
2018-06-17, 03:07:06,VALID,917.129,VALID,0.0,VALID,99.107,VALID,-0.022,VALID,19.308,VALID,99.0,VALID,0.0,
2018-06-17, 03:08:06,VALID,917.105,VALID,0.0,VALID,99.109,VALID,-0.022,VALID,19.283,VALID,100.0,VALID,0.0,
2018-06-17, 03:09:06,VALID,917.087,VALID,0.0,VALID,99.104,VALID,-0.001,VALID,19.275,VALID,102.0,VALID,0.0,
2018-06-17, 03:10:06,VALID,917.081,VALID,0.0,VALID,99.132,VALID,-0.011,VALID,19.268,VALID,102.0,VALID,0.0,
2018-06-17, 03:11:06,VALID,917.071,VALID,0.0,VALID,99.106,VALID,-0.003,VALID,19.254,VALID,97.0,VALID,0.0,
2018-06-17, 03:12:06,VALID,917.058,VALID,0.0,VALID,99.131,VALID,-0.004,VALID,19.27,VALID,93.0,VALID,0.0,
2018-06-17, 03:13:06,VALID,917.025,VALID,0.0,VALID,99.133,VALID,-0.017,VALID,19.263,VALID,94.0,VALID,0.0,
2018-06-17, 03:14:06,VALID,917.025,VALID,0.0,VALID,99.098,VALID,-0.014,VALID,19.236,VALID,104.0,VALID,0.0,
2018-06-17, 03:15:06,VALID,917.025,VALID,0.0,VALID,99.111,VALID,-0.009,VALID,19.209,VALID,113.0,VALID,0.0,
2018-06-17, 03:16:06,VALID,917.016,VALID,0.0,VALID,99.102,VALID,-0.014,VALID,19.201,VALID,116.0,VALID,0.0,
2018-06-17, 03:17:06,VALID,917.006,VALID,0.0,VALID,99.127,VALID,-0.013,VALID,19.242,VALID,106.0,VALID,0.0,
2018-06-17, 03:18:06,VALID,916.989,VALID,0.0,VALID,99.133,VALID,-0.002,VALID,19.278,VALID,108.0,VALID,0.0,
2018-06-17, 03:19:06,VALID,916.97,VALID,0.0,VALID,99.137,VALID,-0.004,VALID,19.269,VALID,102.0,VALID,0.0,
2018-06-17, 03:20:06,VALID,916.958,VALID,0.0,VALID,99.137,VALID,-0.02,VALID,19.271,VALID,93.0,VALID,0.0,
2018-06-17, 03:21:06,VALID,916.943,VALID,0.0,VALID,99.124,VALID,-0.032,VALID,19.24,VALID,89.0,VALID,0.0,
2018-06-17, 03:22:06,VALID,916.932,VALID,0.0,VALID,99.159,VALID,-0.038,VALID,19.242,VALID,99.0,VALID,0.0,
2018-06-17, 03:23:06,VALID,916.925,VALID,0.0,VALID,99.122,VALID,-0.05,VALID,19.216,VALID,113.0,VALID,0.0,
2018-06-17, 03:24:06,VALID,916.933,VALID,0.0,VALID,99.127,VALID,-0.036,VALID,19.221,VALID,113.0,VALID,0.0,
2018-06-17, 03:25:06,VALID,916.935,VALID,0.0,VALID,99.127,VALID,-0.032,VALID,19.223,VALID,110.0,VALID,0.0,
2018-06-17, 03:26:06,VALID,916.939,VALID,0.0,VALID,99.115,VALID,-0.042,VALID,19.196,VALID,105.0,VALID,0.0,
2018-06-17, 03:27:06,VALID,916.942,VALID,0.0,VALID,99.119,VALID,-0.037,VALID,19.168,VALID,97.0,VALID,0.0,
2018-06-17, 03:28:06,VALID,916.941,VALID,0.0,VALID,99.103,VALID,-0.03,VALID,19.127,VALID,92.0,VALID,0.0,
2018-06-17, 03:29:06,VALID,916.947,VALID,0.0,VALID,99.107,VALID,-0.036,VALID,19.118,VALID,91.0,VALID,0.0,
2018-06-17, 03:30:06,VALID,916.972,VALID,0.0,VALID,99.107,VALID,-0.018,VALID,19.108,VALID,87.0,VALID,0.0,
2018-06-17, 03:31:06,VALID,916.971,VALID,0.0,VALID,99.131,VALID,-0.02,VALID,19.115,VALID,85.0,VALID,0.0,
2018-06-17, 03:32:06,VALID,916.968,VALID,0.0,VALID,99.117,VALID,-0.023,VALID,19.11,VALID,83.0,VALID,0.0,
2018-06-17, 03:33:06,VALID,916.961,VALID,0.0,VALID,99.11,VALID,-0.032,VALID,19.118,VALID,84.0,VALID,0.0,
2018-06-17, 03:34:06,VALID,916.952,VALID,0.0,VALID,99.121,VALID,-0.014,VALID,19.132,VALID,88.0,VALID,0.0,
2018-06-17, 03:35:06,VALID,916.923,VALID,0.0,VALID,99.129,VALID,0.0,VALID,19.161,VALID,100.0,VALID,0.0,
2018-06-17, 03:36:06,VALID,916.902,VALID,0.0,VALID,99.103,VALID,0.005,VALID,19.153,VALID,91.0,VALID,0.0,
2018-06-17, 03:37:06,VALID,916.885,VALID,0.0,VALID,99.039,VALID,0.012,VALID,19.052,VALID,82.0,VALID,0.0,
2018-06-17, 03:38:06,VALID,916.896,VALID,0.0,VALID,98.971,VALID,0.003,VALID,18.952,VALID,84.0,VALID,0.0,
2018-06-17, 03:39:06,VALID,916.9,VALID,0.0,VALID,98.995,VALID,0.02,VALID,18.929,VALID,87.0,VALID,0.0,
2018-06-17, 03:40:06,VALID,916.911,VALID,0.0,VALID,98.993,VALID,0.016,VALID,18.892,VALID,121.0,VALID,0.0,
2018-06-17, 03:41:06,VALID,916.934,VALID,0.0,VALID,99.048,VALID,0.021,VALID,18.96,VALID,123.0,VALID,0.0,
2018-06-17, 03:42:06,VALID,916.936,VALID,0.0,VALID,99.086,VALID,0.015,VALID,19.038,VALID,120.0,VALID,0.0,
2018-06-17, 03:43:06,VALID,916.951,VALID,0.0,VALID,99.059,VALID,-0.001,VALID,19.021,VALID,122.0,VALID,0.0,